Flag for U.S.A. Weather past 2 weeks in Black Mountain, North Carolina, U.S.A.

Now
24 °F

Clear.


Feels Like: 24 °F
Forecast: 22 / 49 °F
Wind: No wind

Location: Asheville Regional Airport

Current Time: Jan 29, 2015 at 2:27:52 AM

Latest Report: Jan 29, 2015 at 1:54 AM


Visibility: 10 mi

Pressure: 30.28 "Hg

Humidity: 81%

Dew point: 19 °F

Location of Black MountainLocation

Historic Weather in Black Mountain — Graph

°F

Black Mountain temperature yesterday

Maximum temperature yesterday: 45 °F (at 2:54 PM)
Minimum temperature yesterday: 22 °F (at 6:54 AM)
Average temperature yesterday: 31 °F

Past Weeks' High & Low Weather Summary

 TemperatureHumidityPressure
High66 °F (Jan 20, 2:54 PM)97% (Jan 24, 12:54 AM)30.32 "Hg (Jan 24, 12:54 AM)
Low22 °F (Jan 17, 7:54 AM)17% (Jan 19, 2:54 PM)29.60 "Hg (Jan 24, 4:54 AM)
Average38 °F65%30.02 "Hg
* Reported Jan 14 12:54 AM — Jan 29 12:54 AM, Black Mountain, Weather by CustomWeather, © 2014

Note: Actual official high and low records may vary slightly from our data, if they occured in-between our weather recording intervals... More about our weather records

Advertising

Black Mountain weather history for previous 24 hours

 ConditionsComfort  
Time TempWeatherWind HumidityBarometerVisibility
12:54 AM
Jan 29
24 °FClear.No wind81%30.28 "Hg10 mi
11:54 PM
Jan 28
27 °FClear.No wind72%30.29 "Hg10 mi
10:54 PM26 °FClear.3 mph71%30.31 "Hg10 mi
9:54 PM28 °FClear.No wind69%30.31 "Hg10 mi
8:54 PM30 °FClear.No wind64%30.30 "Hg10 mi
7:54 PM34 °FClear.No wind50%30.28 "Hg10 mi
6:54 PM38 °FClear.9 mph39%30.26 "Hg10 mi
5:54 PM39 °FClear.10 mph39%30.24 "Hg10 mi
4:54 PM45 °FSunny.9 mph28%30.22 "Hg10 mi
3:54 PM45 °FSunny.12 mph26%30.22 "Hg10 mi
2:54 PM45 °FSunny.13 mph30%30.21 "Hg10 mi
1:54 PM43 °FSunny.9 mph31%30.21 "Hg10 mi
12:54 PM40 °FSunny.10 mph35%30.24 "Hg10 mi
11:54 AM38 °FSunny.9 mph36%30.25 "Hg10 mi
10:54 AM33 °FSunny.24 mph38%30.27 "Hg10 mi
9:54 AM29 °FSunny.10 mph47%30.29 "Hg10 mi
8:54 AM24 °FSunny.17 mph60%30.27 "Hg10 mi
7:54 AM22 °FSunny.13 mph68%30.25 "Hg10 mi
6:54 AM22 °FClear.13 mph72%30.21 "Hg10 mi
5:54 AM23 °FClear.14 mph68%30.16 "Hg10 mi
4:54 AM23 °FClear.15 mph72%30.12 "Hg10 mi
3:54 AM24 °FClear.18 mph68%30.10 "Hg10 mi
2:54 AM25 °FClear.22 mph69%30.08 "Hg10 mi
Weather by CustomWeather, © 2014

See weather overviewHow to use our weather pages